SCP
0 0 0 0 0 0 0 0 0 0 0 0 0 0 0 0 0 0 0 -0 -0 -0 -0 -0 -0 -0 -0 -0 0 -0 -0 -0 -0 -0 0 0 0 0 -0 0 0 -0 -0 -0 -0 0 0 0 0
0 0 0 0 0 0 0 0 0 0 0 0 0 0 0 0 0 0 0 -0 -0 -0 -0 -0 -0 -0 -0 -0 -0 -0 -0 -0 -0 -0 0 -0 -0 -0 -0 0 -0 -0 0 0 0 0 0 0 0
0 0 0 0 0 0 0 0 0 0 0 0 0 0 0 0 0 0 0 -0 -0 -0 -0 -0 -0 -0 -0 -0 -0 -0 -0 -0 -0 -0 -0 -0 -0 0 0 0 0 0 0 0 0 0 0 0 0
0 0 0 0 0 0 0 0 0 0 0 0 0 0 0 0 0 0 0 -0 -0 -0 -0 -0 -0 -0 -0 -0 -0 -0 -0 -0 -0 -0 -0 0 0 0 0 0 0 0 0 0 0 0 0 0 0
0 0 0 0 0 0 0 0 0 0 0 0 0 0 0 0 0 0 0 0 0 0 0 0 -0 -0 -0 -0 -0 -0 -0 0 0 0 0 0 0 0 0 0 0 0 0 0 0 0 0 0 0
0 0 0 0 0 0 0 0 0 0 0 0 0 0 0 0 0 0 0 0 0 0 0 0 0 0 0 -0 -0 -0 -0 0 0 0 0 0 0 0 0 0 0 0 0 0 0 0 0 0 0
0 0 0 0 0 0 0 0 0 0 0 0 0 0 0 0 0 0 0 0 0 0 0 0 0 0 0 0 0 0 0 0 0 0 0 0 0 0 0 0 0 0 0 0 0 0 0 0 0
0 0 0 0 0 0 0 0 0 0 0 0 0 0 0 0 0 0 0 0 0 0 0 0 0 0 0 0 0 0 0 0 0 0 0 0 0 0 0 0 0 0 0 0 0 0 0 0 0
0 0 0 0 0 0 0 0 0 0 0 0 0 0 0 0 0 0 0 0 0 0 0 0 0 0 0 0 0 0 0 0 0 0 0 0 0 0 0 0 0 0 0 0 0 0 0 0 0
0 0 0 0 0 0 0 0 0 0 0 0 0 0 0 0 0 0 0 0 0 0 0 0 0 0 0 0 0 0 0 0 0 0 0 0 0 0 0 0 0 0 0 0 0 0 0 0 0
0 0 0 0 0 0 0 0 0 0 0 0 0 0 0 0 0 0 0 0 0 0 0 0 0 0 0 0 0 0 0 0 0 0 0 0 0 0 0 0 0 0 0 0 0 0 0 0 0
0 0 0 0 0 0 0 0 0 0 0 0 0 0 0 0 0 0 0 0 0 0 0 0 0 0 0 0 0 0 0 0 0 0 0 0 0 0 0 0 0 0 0 0 0 0 0 0 0
0 0 0 0 0 0 0 0 0 0 0 0 0 0 0 0 0 0 0 0 0 0 0 0 0 0 0 0 0 0 0 0 0 0 0 0 0 0 0 0 0 0 0 0 0 0 0 0 0
0 0 0 0 0 0 0 0 0 0 0 0 0 0 0 0 0 0 0 0 0 0 0 0 0 0 0 0 0 0 0 0 0 0 0 0 0 0 0 0 0 0 0 0 0 0 0 0 0
0 0 0 0 0 0 0 0 0 0 0 0 0 0 0 0 0 0 0 0 0 0 0 0 0 0 0 0 0 0 0 0 0 0 0 0 0 0 0 0 0 0 0 0 0 0 0 0 0
0 0 0 0 0 0 0 0 0 0 0 0 0 0 0 0 0 0 0 0 0 0 0 0 0 0 0 0 0 0 0 0 0 0 0 0 0 0 0 0 0 0 0 0 0 0 0 0 0
0 0 0 0 0 0 0 0 0 0 0 0 0 0 -0 -0 0 0 0 0 0 0 0 0 0 0 0 0 0 0 0 0 0 0 0 0 0 0 0 0 0 0 0 0 0 0 0 0 0
0 0 0 0 0 0 0 0 0 0 0 0 0 0 0 0 0 0 0 0 0 0 0 0 0 0 0 0 0 0 0 0 0 0 0 0 0 0 0 0 0 0 0 0 0 0 0 0 0
0 0 0 0 0 0 0 0 0 0 0 0 0 0 0 0 0 0 0 0 0 0 0 0 0 0 0 0 0 0 0 0 0 0 0 0 0 0 0 0 0 0 0 0 0 0 0 0 0
0 0 0 0 0 0 0 0 0 0 0 0 0 0 0 0 0 0 0 0 0 0 0 0 0 0 0 0 0 0 0 0 0 0 0 0 0 0 0 0 0 0 0 0 0 0 0 0 0
0 0 0 0 0 0 0 0 0 0 0 0 0 0 0 0 0 0 0 0 0 0 0 0 0 0 0 0 0 0 0 0 0 0 0 0 0 0 0 0 0 0 0 0 0 0 0 0 0
0 0 0 0 0 0 0 0 0 0 0 0 0 0 0 0 0 0 0 0 0 0 0 0 0 0 0 0 0 0 0 0 0 0 0 0 0 0 0 0 0 0 0 0 0 0 0 0 0
0 0 0 0 0 0 0 0 0 0 0 0 0 0 0 0 0 0 0 0 0 0 0 0 0 0 0 0 0 0 0 0 0 0 0 0 0 0 0 0 0 0 0 0 0 0 0 0 0
0 0 0 0 0 0 0 0 0 0 0 0 0 0 0 0 0 0 0 0 0 0 0 0 0 0 0 0 0 0 0 0 0 0 0 0 0 0 0 0 0 0 0 0 0 0 0 0 0
0 0 0 0 0 0 0 -0 0 0 0 0 0 0 0 0 0 0 0 0 0 0 0 0 0 0 0 0 0 0 0 0 0 0 0 0 0 0 0 0 0 0 0 0 0 0 0 0 0
0 0 0 0 0 -0 0 0 0 0 0 0 0 -0 0 0 0 0 0 0 0 0 0 0 0 0 0 0 0 0 0 0 0 0 0 0 0 0 0 0 0 0 0 0 0 0 0 0 0
0 0 0 0 0 -0 -0 0 0 0 0 0 0 0 0 0 0 0 0 0 0 0 0 0 0 0 0 0 0 0 0 0 0 0 0 0 0 0 0 0 0 0 0 0 0 0 0 0 0
0 0 0 0 0 0 0 -0 -0 0 0 0 0 0 0 0 0 0 0 0 0 0 0 0 0 0 0 0 0 0 0 0 0 0 0 0 0 0 0 0 0 0 0 0 0 0 0 0 0
0 0 0 0 0 0 0 0 -0 -0 0 0 0 0 0 0 -0 0 0 0 0 0 0 0 0 0 0 0 0 0 0 0 0 0 0 0 0 0 0 0 0 0 0 0 0 0 0 0 0
0 0 0 0 0 0 0 0 0 0 0 -0 0 0 0 0 -0 0 0 0 0 0 0 0 0 0 0 0 0 0 0 0 0 0 0 0 0 0 0 0 0 0 0 0 0 0 0 0 0
Wind_Speed_500mb
8 5 2 5 7 9 2 1 4 8 6 4 14 12 19 10 4 7 43 21 29 24 20 14 10 6 16 20 17 17 18 20 23 24 25 25 25 22 20 23 25 20 21 25 26 26 28 29 28
7 5 2 2 10 7 4 6 8 5 23 40 31 22 15 6 9 37 36 36 24 18 19 15 8 7 15 18 15 16 17 18 21 23 24 25 22 18 19 24 20 22 24 26 26 27 26 25 27
6 3 2 8 7 8 8 5 11 21 24 6 13 20 12 16 26 41 32 32 23 17 18 16 7 1 13 14 17 15 16 18 21 24 24 25 22 19 20 22 24 25 25 25 25 26 25 26 24
4 4 8 8 6 3 5 8 14 15 14 10 29 17 15 17 21 25 35 24 16 17 16 13 7 4 13 15 18 16 15 19 22 24 26 25 22 19 18 22 22 23 25 25 25 25 26 25 28
5 5 8 8 3 5 4 13 19 7 8 13 8 12 11 21 25 32 28 20 17 18 13 10 7 7 12 19 18 15 17 19 21 23 27 27 22 14 14 18 21 20 20 22 22 24 26 26 28
2 6 8 6 7 5 6 12 16 11 11 21 24 19 10 35 34 34 27 23 20 15 11 9 7 10 14 21 17 14 16 19 22 23 22 24 20 15 12 12 18 19 19 21 20 22 24 24 28
9 7 9 10 11 6 7 13 12 13 15 9 21 12 24 44 39 35 28 26 20 14 10 9 9 12 19 22 17 13 15 17 19 21 20 20 16 14 10 8 9 16 17 15 17 20 23 23 27
9 8 7 4 10 7 2 8 16 12 6 23 25 12 17 51 45 36 31 25 22 16 14 11 12 13 21 14 9 11 13 16 18 20 21 17 14 11 9 7 4 7 9 12 14 20 21 22 24
6 8 7 10 12 10 8 7 5 13 22 7 15 26 21 56 47 37 33 29 23 19 15 13 16 21 14 10 9 10 13 16 19 20 20 19 16 12 10 6 2 4 6 9 11 17 21 21 21
3 8 7 3 3 9 8 9 14 10 11 7 9 23 42 52 41 35 33 28 24 20 17 16 19 14 12 10 10 10 13 15 18 19 19 18 16 12 7 5 4 6 5 8 10 16 19 21 23
7 7 5 3 8 13 11 10 6 22 4 13 26 40 51 51 43 38 34 26 20 20 18 16 17 17 12 10 9 11 13 15 18 19 18 17 15 13 7 2 5 5 7 9 10 15 19 23 24
14 17 5 4 8 8 8 15 8 5 3 13 35 43 51 53 46 42 38 30 25 23 21 18 17 18 15 13 12 14 15 17 18 19 18 16 14 12 7 2 8 8 10 11 13 17 21 21 22
14 4 12 12 17 15 12 9 6 4 8 24 37 47 48 48 47 43 41 35 29 26 25 22 19 20 16 15 16 17 17 17 16 16 17 15 13 9 5 1 10 13 16 16 18 20 19 19 18
12 23 11 11 14 11 5 3 2 7 22 30 37 41 47 43 45 46 44 39 34 31 28 25 23 23 22 20 18 20 22 22 21 21 21 17 12 8 5 3 9 15 20 23 24 20 18 17 13
15 11 9 16 11 7 4 2 7 12 26 32 38 43 45 43 42 44 39 40 37 36 32 31 29 29 29 25 24 22 23 24 24 24 24 19 15 10 4 5 2 17 23 27 29 24 22 16 10
9 9 7 6 8 6 4 11 3 15 30 37 41 44 47 48 49 47 43 41 41 44 41 38 35 33 33 30 27 26 28 28 27 27 26 20 15 9 5 2 3 2 13 22 31 28 26 21 15
12 5 4 3 6 6 5 9 5 12 25 31 40 45 49 53 56 56 52 50 49 48 47 44 45 44 38 34 32 31 33 31 30 29 26 21 16 12 9 8 6 4 10 21 31 36 32 25 23
8 9 4 6 9 6 5 18 13 12 28 37 39 47 53 59 64 56 57 59 57 57 57 55 49 47 43 40 38 38 39 37 33 34 26 22 18 15 12 11 10 9 13 20 34 38 39 34 28
13 9 7 3 6 3 10 14 22 29 31 41 52 54 58 61 56 59 61 59 59 60 60 58 55 53 51 48 44 41 42 39 35 33 24 23 20 19 17 17 14 12 13 21 31 42 46 40 34
12 12 5 3 4 6 8 23 34 25 28 54 65 66 69 64 64 62 62 64 66 65 63 58 57 57 54 50 46 45 43 42 35 32 29 25 22 21 20 18 17 15 16 23 33 48 50 44 40
7 12 4 5 6 2 13 14 10 9 32 43 57 60 62 68 71 67 66 66 64 66 64 60 59 60 58 52 49 50 47 46 41 38 40 32 25 23 21 19 18 17 18 24 34 49 54 51 47
8 2 7 4 4 3 7 9 13 8 15 12 36 45 63 72 71 70 71 69 68 63 57 55 53 55 56 55 56 55 54 50 43 43 41 43 30 27 25 22 21 22 23 25 32 45 59 57 53
6 3 3 3 6 5 6 5 15 9 12 10 12 15 30 41 51 67 77 73 69 65 58 53 50 52 55 58 59 58 57 51 48 46 45 46 36 32 29 26 26 26 26 28 31 35 52 64 61
11 7 10 8 5 5 4 7 12 6 7 11 15 33 34 29 32 34 42 49 61 60 59 54 52 51 53 58 60 60 59 55 54 50 48 47 37 35 32 29 29 29 28 29 32 36 43 54 61
9 9 5 9 8 6 2 1 22 16 21 13 27 38 32 32 34 30 31 33 40 51 55 56 54 53 54 57 61 63 59 57 57 52 48 45 38 36 33 32 32 32 32 32 34 36 38 45 52
4 8 7 6 3 8 1 11 12 10 22 33 35 33 31 34 37 33 26 24 25 33 45 54 55 54 54 57 61 61 61 63 59 55 52 48 43 38 37 34 35 35 34 35 34 34 35 36 38
3 4 2 9 4 3 7 13 18 8 6 27 31 35 38 43 48 38 24 17 18 23 31 44 52 55 55 56 58 62 64 66 64 59 57 52 48 44 43 39 38 37 37 35 34 34 33 32 32
4 9 7 5 1 8 10 10 11 11 16 14 20 35 48 50 47 35 25 16 11 20 29 39 47 56 55 57 58 60 63 65 65 63 61 55 51 49 47 43 42 41 39 40 38 36 34 33 32
4 1 9 5 7 7 6 11 12 11 3 16 32 44 41 51 63 49 30 16 19 35 39 38 43 51 57 58 58 61 62 64 65 64 61 57 55 52 51 45 43 43 42 42 41 39 37 38 34
7 11 12 8 8 8 4 17 5 4 7 15 36 40 60 68 66 58 52 51 47 55 50 48 47 50 53 54 58 61 62 65 66 63 60 58 58 54 51 48 48 47 47 47 45 42 42 39 36
Wind_Direction_500mb
251 213 255 175 72 68 118 198 286 104 89 109 133 130 114 58 128 172 140 144 162 171 169 166 164 28 16 14 18 21 12 13 10 8 12 14 11 14 38 57 59 50 41 42 40 44 49 55 55
224 182 229 116 94 89 244 285 134 120 121 106 93 96 66 81 110 139 142 151 168 167 170 173 177 35 2 10 17 15 8 12 10 6 13 15 17 26 55 66 65 55 49 42 44 51 51 51 51
176 170 290 90 104 152 163 174 132 124 123 91 106 83 87 110 112 149 141 148 160 170 176 174 169 347 343 2 8 5 1 6 10 5 10 20 22 28 57 63 62 58 47 43 45 50 46 48 42
149 177 68 81 120 208 146 128 129 120 94 81 112 81 96 142 136 152 148 150 154 172 167 189 204 315 342 350 357 352 1 3 5 6 7 19 26 42 57 64 62 58 47 51 50 52 50 47 47
189 92 62 76 102 102 62 114 140 91 95 113 104 124 101 150 138 146 151 157 171 164 166 191 232 286 325 326 344 346 356 0 3 9 9 11 27 41 54 63 57 58 53 60 57 54 51 51 49
248 103 79 149 161 114 86 145 137 121 117 115 112 114 126 138 155 155 158 157 168 164 182 220 248 294 307 307 330 342 353 358 2 6 13 9 16 22 36 50 65 58 59 65 58 54 51 48 54
157 93 140 135 143 125 133 122 110 126 123 121 128 112 146 155 158 162 166 166 179 191 202 220 263 285 290 305 320 338 350 359 4 6 11 7 12 20 31 37 49 68 62 70 55 53 55 55 62
159 95 100 111 173 150 85 98 114 124 132 131 143 149 169 166 164 175 177 187 193 203 211 231 261 284 295 297 309 330 348 1 3 7 6 7 7 11 10 26 41 50 51 66 64 57 62 65 69
162 71 134 162 158 150 149 128 103 109 133 122 166 157 170 165 170 181 186 191 200 209 220 241 266 289 290 292 313 332 351 358 3 2 1 358 351 352 357 11 85 81 71 66 76 71 68 73 81
144 82 158 188 123 127 125 114 130 132 132 93 117 157 167 169 177 188 193 196 205 210 221 237 270 284 291 299 314 335 349 354 354 353 352 353 351 344 350 18 142 120 96 83 94 77 79 85 91
15 100 156 66 88 121 123 102 113 138 225 181 173 156 167 172 180 189 194 206 215 222 225 240 265 287 286 287 309 325 338 343 348 348 350 351 351 347 341 325 182 143 130 109 111 100 96 97 93
96 82 58 75 66 85 96 126 110 177 197 177 174 175 172 181 183 196 200 210 218 221 227 239 258 281 290 292 305 316 325 332 341 342 342 341 338 336 335 228 190 160 146 132 134 120 110 106 101
76 94 69 89 85 86 113 72 154 207 161 159 171 174 180 192 191 199 209 210 215 224 232 239 254 274 284 290 300 307 310 315 325 334 334 331 331 328 325 234 187 166 150 143 146 134 128 118 116
102 96 98 66 81 80 109 119 71 194 158 164 180 185 191 198 207 209 210 216 223 227 239 240 251 264 277 284 295 302 305 310 317 324 325 321 316 308 301 251 193 175 157 150 154 145 133 129 141
99 79 63 27 33 51 35 285 227 188 174 177 190 200 206 210 212 221 232 231 235 230 240 246 253 261 269 272 285 294 300 303 306 314 317 314 312 305 325 335 236 184 155 155 164 163 164 166 157
64 59 83 348 20 17 57 269 35 192 186 192 203 209 209 214 222 225 227 233 235 235 242 243 247 250 265 271 277 286 290 298 302 305 308 304 307 302 303 316 347 108 162 168 179 187 184 178 169
25 107 96 5 46 10 79 279 28 205 206 213 213 218 224 225 227 227 230 237 237 237 241 246 248 249 258 265 273 280 285 291 299 301 300 296 294 291 275 264 254 233 183 177 188 193 199 197 183
154 109 32 317 348 29 310 270 273 228 213 228 230 228 229 232 232 233 234 234 237 240 241 245 246 250 254 258 262 268 276 284 292 298 287 286 284 278 271 270 256 246 213 180 191 202 200 202 204
112 99 101 284 338 252 253 280 276 256 230 236 237 236 237 240 241 237 238 240 242 243 245 247 247 247 252 255 257 263 272 274 287 298 293 280 278 271 266 270 269 257 227 197 196 203 206 199 208
84 96 34 335 303 210 317 276 265 219 227 231 235 238 241 244 245 243 242 245 245 248 249 247 248 249 247 249 254 258 265 269 275 283 294 281 271 266 267 266 262 250 231 210 201 210 203 206 210
48 107 131 210 299 69 318 294 297 288 247 257 252 254 256 254 254 251 245 245 248 248 248 249 248 248 249 248 247 251 255 260 267 277 286 288 269 265 263 261 253 241 229 212 208 210 217 217 210
80 285 152 147 69 278 25 286 300 319 299 250 264 255 258 258 259 258 255 251 249 253 250 249 247 246 250 244 242 247 255 264 271 278 280 287 268 264 262 255 245 237 228 216 208 209 214 219 222
139 110 80 74 85 19 7 67 273 337 323 337 336 281 278 278 271 265 259 258 256 252 251 250 249 246 247 244 246 249 253 261 266 269 277 286 266 261 258 256 249 240 228 219 217 215 215 220 222
136 96 48 50 67 30 307 112 291 290 287 325 321 311 320 323 315 291 276 266 256 252 246 249 248 248 244 245 248 250 253 257 259 267 272 279 269 262 262 261 252 242 233 226 224 221 219 220 225
76 63 346 360 13 225 102 143 253 274 274 263 285 317 334 339 342 315 295 283 270 254 248 248 250 252 249 247 247 250 252 254 257 264 266 268 271 266 267 265 256 245 237 234 231 225 221 221 224
109 133 143 255 280 280 123 233 250 226 296 288 296 301 320 342 344 338 317 305 293 273 259 254 256 258 253 252 253 254 256 255 258 260 264 264 267 266 259 260 256 251 246 242 236 229 226 225 225
177 164 166 94 53 25 247 291 285 329 355 2 23 32 19 6 356 347 339 332 322 298 275 265 261 263 260 260 258 258 258 259 259 259 258 258 262 262 255 254 249 244 246 242 239 239 239 232 225
148 160 66 11 334 285 287 272 235 307 325 349 0 353 347 348 349 343 359 0 358 338 296 271 265 264 264 264 263 262 260 259 260 262 260 258 262 262 256 255 252 246 238 235 237 239 236 230 231
66 132 54 129 158 215 284 259 222 219 296 346 339 0 20 27 17 4 348 358 341 332 317 297 275 267 265 267 268 266 264 263 262 261 260 260 262 257 254 254 250 243 239 238 239 238 235 236 236
159 181 165 163 225 232 247 261 223 286 344 342 350 339 325 324 336 341 324 313 315 321 314 300 290 278 271 269 267 267 266 264 262 260 260 260 259 256 256 253 249 241 236 234 237 239 237 239 242
Wind_Speed_850mb
8 5 2 5 7 9 2 1 4 8 6 4 14 12 19 10 4 7 43 21 29 24 20 14 10 6 16 20 17 17 18 20 23 24 25 25 25 22 20 23 25 20 21 25 26 26 28 29 28
7 5 2 2 10 7 4 6 8 5 23 40 31 22 15 6 9 37 36 36 24 18 19 15 8 7 15 18 15 16 17 18 21 23 24 25 22 18 19 24 20 22 24 26 26 27 26 25 27
6 3 2 8 7 8 8 5 11 21 24 6 13 20 12 16 26 41 32 32 23 17 18 16 7 1 13 14 17 15 16 18 21 24 24 25 22 19 20 22 24 25 25 25 25 26 25 26 24
4 4 8 8 6 3 5 8 14 15 14 10 29 17 15 17 21 25 35 24 16 17 16 13 7 4 13 15 18 16 15 19 22 24 26 25 22 19 18 22 22 23 25 25 25 25 26 25 28
5 5 8 8 3 5 4 13 19 7 8 13 8 12 11 21 25 32 28 20 17 18 13 10 7 7 12 19 18 15 17 19 21 23 27 27 22 14 14 18 21 20 20 22 22 24 26 26 28
2 6 8 6 7 5 6 12 16 11 11 21 24 19 10 35 34 34 27 23 20 15 11 9 7 10 14 21 17 14 16 19 22 23 22 24 20 15 12 12 18 19 19 21 20 22 24 24 28
9 7 9 10 11 6 7 13 12 13 15 9 21 12 24 44 39 35 28 26 20 14 10 9 9 12 19 22 17 13 15 17 19 21 20 20 16 14 10 8 9 16 17 15 17 20 23 23 27
9 8 7 4 10 7 2 8 16 12 6 23 25 12 17 51 45 36 31 25 22 16 14 11 12 13 21 14 9 11 13 16 18 20 21 17 14 11 9 7 4 7 9 12 14 20 21 22 24
6 8 7 10 12 10 8 7 5 13 22 7 15 26 21 56 47 37 33 29 23 19 15 13 16 21 14 10 9 10 13 16 19 20 20 19 16 12 10 6 2 4 6 9 11 17 21 21 21
3 8 7 3 3 9 8 9 14 10 11 7 9 23 42 52 41 35 33 28 24 20 17 16 19 14 12 10 10 10 13 15 18 19 19 18 16 12 7 5 4 6 5 8 10 16 19 21 23
7 7 5 3 8 13 11 10 6 22 4 13 26 40 51 51 43 38 34 26 20 20 18 16 17 17 12 10 9 11 13 15 18 19 18 17 15 13 7 2 5 5 7 9 10 15 19 23 24
14 17 5 4 8 8 8 15 8 5 3 13 35 43 51 53 46 42 38 30 25 23 21 18 17 18 15 13 12 14 15 17 18 19 18 16 14 12 7 2 8 8 10 11 13 17 21 21 22
14 4 12 12 17 15 12 9 6 4 8 24 37 47 48 48 47 43 41 35 29 26 25 22 19 20 16 15 16 17 17 17 16 16 17 15 13 9 5 1 10 13 16 16 18 20 19 19 18
12 23 11 11 14 11 5 3 2 7 22 30 37 41 47 43 45 46 44 39 34 31 28 25 23 23 22 20 18 20 22 22 21 21 21 17 12 8 5 3 9 15 20 23 24 20 18 17 13
15 11 9 16 11 7 4 2 7 12 26 32 38 43 45 43 42 44 39 40 37 36 32 31 29 29 29 25 24 22 23 24 24 24 24 19 15 10 4 5 2 17 23 27 29 24 22 16 10
9 9 7 6 8 6 4 11 3 15 30 37 41 44 47 48 49 47 43 41 41 44 41 38 35 33 33 30 27 26 28 28 27 27 26 20 15 9 5 2 3 2 13 22 31 28 26 21 15
12 5 4 3 6 6 5 9 5 12 25 31 40 45 49 53 56 56 52 50 49 48 47 44 45 44 38 34 32 31 33 31 30 29 26 21 16 12 9 8 6 4 10 21 31 36 32 25 23
8 9 4 6 9 6 5 18 13 12 28 37 39 47 53 59 64 56 57 59 57 57 57 55 49 47 43 40 38 38 39 37 33 34 26 22 18 15 12 11 10 9 13 20 34 38 39 34 28
13 9 7 3 6 3 10 14 22 29 31 41 52 54 58 61 56 59 61 59 59 60 60 58 55 53 51 48 44 41 42 39 35 33 24 23 20 19 17 17 14 12 13 21 31 42 46 40 34
12 12 5 3 4 6 8 23 34 25 28 54 65 66 69 64 64 62 62 64 66 65 63 58 57 57 54 50 46 45 43 42 35 32 29 25 22 21 20 18 17 15 16 23 33 48 50 44 40
7 12 4 5 6 2 13 14 10 9 32 43 57 60 62 68 71 67 66 66 64 66 64 60 59 60 58 52 49 50 47 46 41 38 40 32 25 23 21 19 18 17 18 24 34 49 54 51 47
8 2 7 4 4 3 7 9 13 8 15 12 36 45 63 72 71 70 71 69 68 63 57 55 53 55 56 55 56 55 54 50 43 43 41 43 30 27 25 22 21 22 23 25 32 45 59 57 53
6 3 3 3 6 5 6 5 15 9 12 10 12 15 30 41 51 67 77 73 69 65 58 53 50 52 55 58 59 58 57 51 48 46 45 46 36 32 29 26 26 26 26 28 31 35 52 64 61
11 7 10 8 5 5 4 7 12 6 7 11 15 33 34 29 32 34 42 49 61 60 59 54 52 51 53 58 60 60 59 55 54 50 48 47 37 35 32 29 29 29 28 29 32 36 43 54 61
9 9 5 9 8 6 2 1 22 16 21 13 27 38 32 32 34 30 31 33 40 51 55 56 54 53 54 57 61 63 59 57 57 52 48 45 38 36 33 32 32 32 32 32 34 36 38 45 52
4 8 7 6 3 8 1 11 12 10 22 33 35 33 31 34 37 33 26 24 25 33 45 54 55 54 54 57 61 61 61 63 59 55 52 48 43 38 37 34 35 35 34 35 34 34 35 36 38
3 4 2 9 4 3 7 13 18 8 6 27 31 35 38 43 48 38 24 17 18 23 31 44 52 55 55 56 58 62 64 66 64 59 57 52 48 44 43 39 38 37 37 35 34 34 33 32 32
4 9 7 5 1 8 10 10 11 11 16 14 20 35 48 50 47 35 25 16 11 20 29 39 47 56 55 57 58 60 63 65 65 63 61 55 51 49 47 43 42 41 39 40 38 36 34 33 32
4 1 9 5 7 7 6 11 12 11 3 16 32 44 41 51 63 49 30 16 19 35 39 38 43 51 57 58 58 61 62 64 65 64 61 57 55 52 51 45 43 43 42 42 41 39 37 38 34
7 11 12 8 8 8 4 17 5 4 7 15 36 40 60 68 66 58 52 51 47 55 50 48 47 50 53 54 58 61 62 65 66 63 60 58 58 54 51 48 48 47 47 47 45 42 42 39 36
Wind_Direction_850mb
251 213 255 175 72 68 118 198 286 104 89 109 133 130 114 58 128 172 140 144 162 171 169 166 164 28 16 14 18 21 12 13 10 8 12 14 11 14 38 57 59 50 41 42 40 44 49 55 55
224 182 229 116 94 89 244 285 134 120 121 106 93 96 66 81 110 139 142 151 168 167 170 173 177 35 2 10 17 15 8 12 10 6 13 15 17 26 55 66 65 55 49 42 44 51 51 51 51
176 170 290 90 104 152 163 174 132 124 123 91 106 83 87 110 112 149 141 148 160 170 176 174 169 347 343 2 8 5 1 6 10 5 10 20 22 28 57 63 62 58 47 43 45 50 46 48 42
149 177 68 81 120 208 146 128 129 120 94 81 112 81 96 142 136 152 148 150 154 172 167 189 204 315 342 350 357 352 1 3 5 6 7 19 26 42 57 64 62 58 47 51 50 52 50 47 47
189 92 62 76 102 102 62 114 140 91 95 113 104 124 101 150 138 146 151 157 171 164 166 191 232 286 325 326 344 346 356 0 3 9 9 11 27 41 54 63 57 58 53 60 57 54 51 51 49
248 103 79 149 161 114 86 145 137 121 117 115 112 114 126 138 155 155 158 157 168 164 182 220 248 294 307 307 330 342 353 358 2 6 13 9 16 22 36 50 65 58 59 65 58 54 51 48 54
157 93 140 135 143 125 133 122 110 126 123 121 128 112 146 155 158 162 166 166 179 191 202 220 263 285 290 305 320 338 350 359 4 6 11 7 12 20 31 37 49 68 62 70 55 53 55 55 62
159 95 100 111 173 150 85 98 114 124 132 131 143 149 169 166 164 175 177 187 193 203 211 231 261 284 295 297 309 330 348 1 3 7 6 7 7 11 10 26 41 50 51 66 64 57 62 65 69
162 71 134 162 158 150 149 128 103 109 133 122 166 157 170 165 170 181 186 191 200 209 220 241 266 289 290 292 313 332 351 358 3 2 1 358 351 352 357 11 85 81 71 66 76 71 68 73 81
144 82 158 188 123 127 125 114 130 132 132 93 117 157 167 169 177 188 193 196 205 210 221 237 270 284 291 299 314 335 349 354 354 353 352 353 351 344 350 18 142 120 96 83 94 77 79 85 91
15 100 156 66 88 121 123 102 113 138 225 181 173 156 167 172 180 189 194 206 215 222 225 240 265 287 286 287 309 325 338 343 348 348 350 351 351 347 341 325 182 143 130 109 111 100 96 97 93
96 82 58 75 66 85 96 126 110 177 197 177 174 175 172 181 183 196 200 210 218 221 227 239 258 281 290 292 305 316 325 332 341 342 342 341 338 336 335 228 190 160 146 132 134 120 110 106 101
76 94 69 89 85 86 113 72 154 207 161 159 171 174 180 192 191 199 209 210 215 224 232 239 254 274 284 290 300 307 310 315 325 334 334 331 331 328 325 234 187 166 150 143 146 134 128 118 116
102 96 98 66 81 80 109 119 71 194 158 164 180 185 191 198 207 209 210 216 223 227 239 240 251 264 277 284 295 302 305 310 317 324 325 321 316 308 301 251 193 175 157 150 154 145 133 129 141
99 79 63 27 33 51 35 285 227 188 174 177 190 200 206 210 212 221 232 231 235 230 240 246 253 261 269 272 285 294 300 303 306 314 317 314 312 305 325 335 236 184 155 155 164 163 164 166 157
64 59 83 348 20 17 57 269 35 192 186 192 203 209 209 214 222 225 227 233 235 235 242 243 247 250 265 271 277 286 290 298 302 305 308 304 307 302 303 316 347 108 162 168 179 187 184 178 169
25 107 96 5 46 10 79 279 28 205 206 213 213 218 224 225 227 227 230 237 237 237 241 246 248 249 258 265 273 280 285 291 299 301 300 296 294 291 275 264 254 233 183 177 188 193 199 197 183
154 109 32 317 348 29 310 270 273 228 213 228 230 228 229 232 232 233 234 234 237 240 241 245 246 250 254 258 262 268 276 284 292 298 287 286 284 278 271 270 256 246 213 180 191 202 200 202 204
112 99 101 284 338 252 253 280 276 256 230 236 237 236 237 240 241 237 238 240 242 243 245 247 247 247 252 255 257 263 272 274 287 298 293 280 278 271 266 270 269 257 227 197 196 203 206 199 208
84 96 34 335 303 210 317 276 265 219 227 231 235 238 241 244 245 243 242 245 245 248 249 247 248 249 247 249 254 258 265 269 275 283 294 281 271 266 267 266 262 250 231 210 201 210 203 206 210
48 107 131 210 299 69 318 294 297 288 247 257 252 254 256 254 254 251 245 245 248 248 248 249 248 248 249 248 247 251 255 260 267 277 286 288 269 265 263 261 253 241 229 212 208 210 217 217 210
80 285 152 147 69 278 25 286 300 319 299 250 264 255 258 258 259 258 255 251 249 253 250 249 247 246 250 244 242 247 255 264 271 278 280 287 268 264 262 255 245 237 228 216 208 209 214 219 222
139 110 80 74 85 19 7 67 273 337 323 337 336 281 278 278 271 265 259 258 256 252 251 250 249 246 247 244 246 249 253 261 266 269 277 286 266 261 258 256 249 240 228 219 217 215 215 220 222
136 96 48 50 67 30 307 112 291 290 287 325 321 311 320 323 315 291 276 266 256 252 246 249 248 248 244 245 248 250 253 257 259 267 272 279 269 262 262 261 252 242 233 226 224 221 219 220 225
76 63 346 360 13 225 102 143 253 274 274 263 285 317 334 339 342 315 295 283 270 254 248 248 250 252 249 247 247 250 252 254 257 264 266 268 271 266 267 265 256 245 237 234 231 225 221 221 224
109 133 143 255 280 280 123 233 250 226 296 288 296 301 320 342 344 338 317 305 293 273 259 254 256 258 253 252 253 254 256 255 258 260 264 264 267 266 259 260 256 251 246 242 236 229 226 225 225
177 164 166 94 53 25 247 291 285 329 355 2 23 32 19 6 356 347 339 332 322 298 275 265 261 263 260 260 258 258 258 259 259 259 258 258 262 262 255 254 249 244 246 242 239 239 239 232 225
148 160 66 11 334 285 287 272 235 307 325 349 0 353 347 348 349 343 359 0 358 338 296 271 265 264 264 264 263 262 260 259 260 262 260 258 262 262 256 255 252 246 238 235 237 239 236 230 231
66 132 54 129 158 215 284 259 222 219 296 346 339 0 20 27 17 4 348 358 341 332 317 297 275 267 265 267 268 266 264 263 262 261 260 260 262 257 254 254 250 243 239 238 239 238 235 236 236
159 181 165 163 225 232 247 261 223 286 344 342 350 339 325 324 336 341 324 313 315 321 314 300 290 278 271 269 267 267 266 264 262 260 260 260 259 256 256 253 249 241 236 234 237 239 237 239 242